WetterOnline ( https://www.wetteronline.de )

Wetter aktuell Bad Schmiedeberg

Aktuelles Wetter: Wittenberg (106m)

6-stündlich | Neueste Meldungen
Ortszeit Temperatur Wetter
Di, 20.08. 2:00 13.4° C wolkig
Mo, 19.08. 20:00 21.9° C leicht bewölkt
Mo, 19.08. 14:00 24.2° C fast wolkenlos
Mo, 19.08. 8:00 16.4° C bewölkt
Mo, 19.08. 2:00 17.6° C bedeckt
So, 18.08. 20:00 22.0° C bewölkt
So, 18.08. 14:00 23.6° C bewölkt
So, 18.08. 8:00 16.9° C Sprühregen
Ortszeit Temperatur Wetter
Di, 20.08. 5:30 11.3° C wolkig
Di, 20.08. 5:20 11.3° C wolkig
Di, 20.08. 5:10 11.2° C wolkig
Di, 20.08. 5:00 11.5° C leicht bewölkt
Di, 20.08. 4:50 11.5° C leicht bewölkt
Di, 20.08. 4:40 11.5° C leicht bewölkt
Di, 20.08. 4:30 11.4° C wolkenlos
Di, 20.08. 4:00 12.6° C wolkig
Di, 20.08. 3:30 12.5° C fast wolkenlos
Di, 20.08. 3:00 12.9° C leicht bewölkt
Di, 20.08. 2:30 13.2° C bewölkt
Ortszeit Relative Feuchte Sichtweite
Di, 20.08. 2:00 75% 60 km
Mo, 19.08. 20:00 40% >70 km
Mo, 19.08. 14:00 35% >70 km
Mo, 19.08. 8:00 94% 10 km
Mo, 19.08. 2:00 94% 35 km
So, 18.08. 20:00 66% >70 km
So, 18.08. 14:00 64% 60 km
So, 18.08. 8:00 96% 3.7 km
Ortszeit Relative Feuchte Sichtweite
Di, 20.08. 5:30 78% >70 km
Di, 20.08. 5:20 78% -
Di, 20.08. 5:10 78% -
Di, 20.08. 5:00 77% 65 km
Di, 20.08. 4:50 77% -
Di, 20.08. 4:40 76% -
Di, 20.08. 4:30 79% 60 km
Di, 20.08. 4:00 73% 65 km
Di, 20.08. 3:30 74% >70 km
Di, 20.08. 3:00 73% >70 km
Di, 20.08. 2:30 73% >70 km
Ortszeit Niederschlagsmenge Niederschlagsart
Di, 20.08. 2:00 0.0 l/m2 in 6 Std. -
Mo, 19.08. 20:00 0.0 l/m2 in 12 Std. -
Mo, 19.08. 14:00 0.0 l/m2 in 6 Std. -
Mo, 19.08. 8:00 0.4 l/m2 in 12 Std. -
Mo, 19.08. 2:00 0.4 l/m2 in 6 Std. Regen
So, 18.08. 20:00 0.6 l/m2 in 12 Std. Regen
So, 18.08. 14:00 0.5 l/m2 in 6 Std. Regen
So, 18.08. 8:00 2 l/m2 in 12 Std. Regen
Ortszeit Niederschlagsmenge Niederschlagsart
Di, 20.08. 5:30 0.0 l/m2 in 1 Std. -
Di, 20.08. 5:20 keine Meldung -
Di, 20.08. 5:10 keine Meldung -
Di, 20.08. 5:00 0.0 l/m2 in 1 Std. -
Di, 20.08. 4:50 keine Meldung -
Di, 20.08. 4:40 keine Meldung -
Di, 20.08. 4:30 0.0 l/m2 in 1 Std. -
Di, 20.08. 4:00 0.0 l/m2 in 1 Std. -
Di, 20.08. 3:30 0.0 l/m2 in 1 Std. -
Di, 20.08. 3:00 0.0 l/m2 in 1 Std. -
Di, 20.08. 2:30 0.0 l/m2 in 1 Std. -
Ortszeit Stärke Spitze Richtung
km/h Bft. km/h Grad Sektor
Di, 20.08. 2:00 6 1 11 90° O
Mo, 19.08. 20:00 7 2 43 320° NW
Mo, 19.08. 14:00 20 4 41 230° SW
Mo, 19.08. 8:00 - - - - -
Mo, 19.08. 2:00 - - - - -
So, 18.08. 20:00 - - - - -
So, 18.08. 14:00 - - - - -
So, 18.08. 8:00 - - - - -
Ortszeit Stärke Spitze Richtung
km/h Bft. km/h Grad Sektor
Di, 20.08. 5:30 7 2 7 350° N
Di, 20.08. 5:20 7 2 - 350° N
Di, 20.08. 5:10 7 2 - 350° N
Di, 20.08. 5:00 6 1 6 360° N
Di, 20.08. 4:50 6 1 - 360° N
Di, 20.08. 4:40 6 1 - 30° NO
Di, 20.08. 4:30 4 1 4 70° O
Di, 20.08. 4:00 4 1 7 10° N
Di, 20.08. 3:30 2 1 6 60° NO
Di, 20.08. 3:00 4 1 7 20° N
Di, 20.08. 2:30 4 1 7 60° NO
Ortszeit Untergrenze Bedeckung Gattung
total tief tief mittel hoch
Di, 20.08. 2:00 2700 m 8/8 3/8 - - -
Mo, 19.08. 20:00 2400 m 7/8 1/8 - - -
Mo, 19.08. 14:00 1800 m 1/8 1/8 - - -
Mo, 19.08. 8:00 1800 m 8/8 4/8 - - -
Mo, 19.08. 2:00 390 m 8/8 8/8 - - -
So, 18.08. 20:00 3000 m 7/8 7/8 - - -
So, 18.08. 14:00 660 m 7/8 7/8 - - -
So, 18.08. 8:00 90 m 8/8 8/8 - - -
Ortszeit Bedeckungsgrad in Achtel und Wolkenuntergrenze
Di, 20.08. 5:30 6(7200m) 7(8100m) 8(10500m)
Di, 20.08. 5:20 6(7200m) 7(8100m) 8(10500m)
Di, 20.08. 5:10 6(7500m) 7(8100m) 7(10500m)
Di, 20.08. 5:00 4(7500m) 5(8100m) 5(10500m)
Di, 20.08. 4:50 4(7500m) 5(8100m) 5(10500m)
Di, 20.08. 4:40 5(7500m) 6(8400m) 6(10500m)
Di, 20.08. 4:30 3(7500m)
Di, 20.08. 4:00 6(2700m)
Di, 20.08. 3:30 1(2700m)
Di, 20.08. 3:00 3(7800m)
Di, 20.08. 2:30 5(2700m) 8(7500m) 8(9000m)
Ortszeit Luftdruck NN (hPa) Tendenz (hPa in 3 Std.)
Di, 20.08. 2:00 1020 + 1,1
Mo, 19.08. 20:00 1018 + 1,1
Mo, 19.08. 14:00 1016 + 0,6
Mo, 19.08. 8:00 1015 + 1,6
Mo, 19.08. 2:00 1012 + 2,3
So, 18.08. 20:00 1007 + 1,4
So, 18.08. 14:00 1007 + 0,3
So, 18.08. 8:00 1008 - 0,5
Ortszeit Luftdruck NN (hPa) Tendenz (hPa in 3 Std.)
Di, 20.08. 5:30 1021 + 0,1
Di, 20.08. 5:20 1021 keine Meldung
Di, 20.08. 5:10 1021 keine Meldung
Di, 20.08. 5:00 1021 + 0,1
Di, 20.08. 4:50 1021 keine Meldung
Di, 20.08. 4:40 1020 keine Meldung
Di, 20.08. 4:30 1021 + 0,3
Di, 20.08. 4:00 1021 + 0,5
Di, 20.08. 3:30 1020 + 0,6
Di, 20.08. 3:00 1020 + 0,8
Di, 20.08. 2:30 1020 + 1,0
Ortszeit Schneehöhe (cm)
Di, 20.08. 2:00 -
Mo, 19.08. 20:00 -
Mo, 19.08. 14:00 -
Mo, 19.08. 8:00 -
Mo, 19.08. 2:00 -
So, 18.08. 20:00 -
So, 18.08. 14:00 -
So, 18.08. 8:00 -
Ortszeit Schneehöhe (cm)
Di, 20.08. 5:30 -
Di, 20.08. 5:20 -
Di, 20.08. 5:10 -
Di, 20.08. 5:00 -
Di, 20.08. 4:50 -
Di, 20.08. 4:40 -
Di, 20.08. 4:30 -
Di, 20.08. 4:00 -
Di, 20.08. 3:30 -
Di, 20.08. 3:00 -
Di, 20.08. 2:30 -
Link zu dieser Seite / Seite empfehlen

Das Wetter in ...